NOAA NWS Hourly Roundups by Site

Regional Weather Roundup for Indianapolis, IN

To Select Another Site Choose from List

Select Site:  

000
ASUS43 KIND 302359
RWRIN

WEATHER ROUNDUP FOR INDIANA
NATIONAL WEATHER SERVICE INDIANAPOLIS IN
800 PM EDT FRI APR 30 2021

NOTE: "FAIR" INDICATES FEW OR NO CLOUDS BELOW 12,000 FEET WITH NO
SIGNIFICANT WEATHER AND/OR OBSTRUCTIONS TO VISIBILITY.

* - STATION DOES NOT REPORT WEATHER SUCH AS PRECIPITATION OR FOG.

+ - STATION NOT QUALITY CONTROLLED BY THE NATIONAL WEATHER SERVICE.
    USE DATA WITH CAUTION...ESPECIALLY DEWPOINT AND RELATIVE
    HUMIDITY OBSERVATIONS.

INZ001>003-010>013-019-020-010100-
NORTHWEST INDIANA

CITY           SKY/WX    TMP DP  RH WIND       PRES   REMARKS
GARY /AIRPORT/ CLEAR     45  32  61 E9        30.23F
LA PORTE +     CLEAR     46  32  58 N7        30.22F
6HR MIN TEMP:  46; 6HR MAX TEMP:  50;

MICHIGAN CITY+ CLEAR     43  30  61 N5        30.23F
MONTICELLO +   CLEAR     51  30  44 N10       30.20F
6HR MIN TEMP:  51; 6HR MAX TEMP:  56;

RENSSELAER +   CLEAR     48  32  53 N9        30.20F

$$

LMZ046-743>745-010100-
SOUTHERN LAKE MICHIGAN

STATION/POSITION TIME  TEMP    WIND        PRES    WAVE
                       AIR SEA DIR/SP/G            HT
                 (UTC) (F)     (DEG/KT/KT) (MB)    (FT)
BURNS HARBOR     2340   45      70/  6/  7 1023.7F
MICHIGAN CITY    2330   43      50/ 10/ 12 1024.6F

$$

INZ004-005-014>016-021>024-010100-
NORTH CENTRAL INDIANA

CITY           SKY/WX    TMP DP  RH WIND       PRES   REMARKS
PERU/GRISSOM   CLEAR     51  28  42 N14       30.19R
6HR MIN TEMP:  51; 6HR MAX TEMP:  57;

ROCHESTER +    CLEAR     50  28  43 N13G22    30.21R
SOUTH BEND     CLEAR     47  28  47 N9        30.22S
6HR MIN TEMP:  47; 6HR MAX TEMP:  52;

WARSAW +       CLEAR     46  27  46 NW15      30.19S

$$

INZ006>009-017-018-025>027-010100-
NORTHEAST INDIANA

CITY           SKY/WX    TMP DP  RH WIND       PRES   REMARKS
ANGOLA *+      CLEAR     48  25  40 NW12G20   30.15R
FORT WAYNE     PTCLDY    49  26  41 NW16G23   30.17R
6HR MIN TEMP:  49; 6HR MAX TEMP:  59;

KENDALLVILLE + FAIR      48  28  45 NW10G18   30.16R

$$

INZ028-029-035-036-043>045-051>053-010100-
WEST CENTRAL INDIANA

CITY           SKY/WX    TMP DP  RH WIND       PRES   REMARKS
CRAWFORDSVL +  CLEAR     53  32  44 N12       30.19S
6HR MIN TEMP:  53; 6HR MAX TEMP:  59;

LAFAYETTE      CLEAR     58  32  37 N12G22    30.19F
6HR MIN TEMP:  58; 6HR MAX TEMP:  64;

TERRE HAUTE    CLEAR     61  39  44 N12       30.17R
6HR MIN TEMP:  61; 6HR MAX TEMP:  69;


$$

INZ030>032-037>040-046>048-054>057-064-065-010100-
CENTRAL INDIANA

CITY           SKY/WX    TMP DP  RH WIND       PRES   REMARKS
ANDERSON +     CLEAR     51  30  43 N15G23    30.18S
6HR MIN TEMP:  53; 6HR MAX TEMP:  62;

COLUMBUS       CLEAR     55  30  38 N18       30.17R
GREENWOOD *+   CLEAR     55  32  41 N16       30.17S
6HR MIN TEMP:  55; 6HR MAX TEMP:  64;

INDIANAPOLIS   PTCLDY    55  29  36 N17G25    30.18S
6HR MIN TEMP:  55; 6HR MAX TEMP:  66;

-EAGLE CREEK   CLEAR     55  29  36 N14G24    30.17S
6HR MIN TEMP:  55; 6HR MAX TEMP:  63;

KOKOMO +       CLEAR     51  31  46 N15       30.20S
6HR MIN TEMP:  51; 6HR MAX TEMP:  58;

MT COMFORT *+  CLEAR     52  36  54 N16       30.18S
SHELBYVILLE    CLEAR     56  29  35 N16       30.15S
6HR MIN TEMP:  56; 6HR MAX TEMP:  69;


$$

INZ033-034-041-042-049-050-058-059-010100-
EAST CENTRAL INDIANA

CITY           SKY/WX    TMP DP  RH WIND       PRES   REMARKS
MUNCIE         CLEAR     53  27  36 NW17      30.17R
6HR MIN TEMP:  53; 6HR MAX TEMP:  64;

PORTLAND +     FAIR      52  23  32 NW15      30.14S
RICHMOND +     FAIR      50  32  50 NW20G26   30.15R

$$

INZ060-061-067>069-081>083-085>088-010100-
SOUTHWEST INDIANA

CITY           SKY/WX    TMP DP  RH WIND       PRES   REMARKS
EVANSVILLE     CLEAR     70  42  36 N12       30.14R
6HR MIN TEMP:  70; 6HR MAX TEMP:  76;

HUNTINGBURG +  CLEAR     66  43  43 N10       30.14R
6HR MIN TEMP:  66; 6HR MAX TEMP:  73;


$$

INZ062-063-066-070>080-084-089>092-010100-
SOUTH CENTRAL AND SOUTHEAST INDIANA

CITY           SKY/WX    TMP DP  RH WIND       PRES   REMARKS
BLOOMINGTON    CLEAR     59  37  44 N13       30.16R
6HR MIN TEMP:  59; 6HR MAX TEMP:  73;

FRENCH LICK *+ CLEAR     64  32  29 NW3       30.14S
MADISON *+     CLEAR     57  34  41 N8        30.16R

$$



 

View Past Reports for Indianapolis, IN.

Products Courtesy of NOAA-NWS
NWS Information Parsing Script by Ken True at Saratoga Weather - Script by SE Lincoln Weather.